Overview Statistics Trail Chart Weather Telemetry Raw packets
 

This is the latest recevied weather packets stored in our database for station/object W5ITZ. If no packets are shown the sender has not sent any weather packets the latest 10 day(s).

<< 87 88 89 90 91 92 93 >>
Time Temp. Humidity Pressure Rain* Wind** Luminosity Snow
1787581238 28.89° C 83% 1016.5 hPa 0 mm - 384 W/m² -
1787580938 28.89° C 85% 1016.4 hPa 0 mm - 358 W/m² -
1787580634 28.33° C 86% 1016.6 hPa 0 mm - 319 W/m² -
1787580329 28.33° C 87% 1016.8 hPa 0 mm - 320 W/m² -
1787580025 28.33° C 88% 1016.4 hPa 0 mm - 228 W/m² -
1787579724 28.33° C 90% 1016.4 hPa 0 mm - 277 W/m² -
1787579419 28.33° C 91% 1016.5 hPa 0 mm - 230 W/m² -
1787579114 27.78° C 92% 1016.4 hPa 0 mm - 180 W/m² -
1787578810 27.78° C 93% 1016.5 hPa 0 mm - 151 W/m² -
1787578505 27.78° C 95% 1016.3 hPa 0 mm - 134 W/m² -
1787578204 27.22° C 96% 1016.3 hPa 0 mm - 121 W/m² -
1787577900 26.67° C 97% 1016.5 hPa 0 mm - 109 W/m² -
1787577595 26.67° C 97% 1016.4 hPa 0 mm - 97 W/m² -
1787577291 26.67° C 97% 1016.4 hPa 0 mm - 89 W/m² -
1787576988 26.11° C 98% 1016.2 hPa 0 mm - 82 W/m² -
1787576687 26.11° C 98% 1016.3 hPa 0 mm - 76 W/m² -
1787576383 26.11° C 98% 1016.2 hPa 0 mm - 69 W/m² -
1787576079 25.56° C 98% 1016.3 hPa 0 mm - 62 W/m² -
1787575774 25.56° C 98% 1016.2 hPa 0 mm - 56 W/m² -
1787575470 25.56° C 98% 1016.1 hPa 0 mm - 49 W/m² -
1787575165 25.56° C 98% 1016.1 hPa 0 mm - 43 W/m² -
1787574865 25° C 98% 1016 hPa 0 mm - 36 W/m² -
1787574560 25° C 98% 1016.3 hPa 0 mm - 29 W/m² -
1787574259 25° C 98% 1016.1 hPa 0 mm - 23 W/m² -
1787573954 25° C 98% 1016.2 hPa 0 mm - 17 W/m² -

* Rain latest hour (hover to see other rain measurements)
** Current wind speed in m/s (hover to see current wind gust speed)